Location: Unspecified
(38.9820°N, 94.4650°W)
Time: 04:56:55
(UTC-05:00)

ISS - Visible Passes

Search period start: 22 March 2019 00:00
Search period end: 01 April 2019 00:00
Orbit: 406 x 411 km, 51.6° (Epoch: 22 March)

Date Brightness Start Highest point End Pass type
(mag) Time Alt. Az. Time Alt. Az. Time Alt. Az.
22 Mar -2.1 21:20:55 10° W 21:23:53 30° NNW 21:24:40 27° N visible
23 Mar -3.0 20:29:33 10° WSW 20:32:46 52° NW 20:36:00 10° NE visible
23 Mar -0.5 22:08:16 10° NW 22:09:03 12° NNW 22:09:03 12° NNW visible
24 Mar -1.1 21:16:19 10° WNW 21:18:37 17° NNW 21:20:27 12° NNE visible
25 Mar -1.7 20:24:34 10° W 20:27:21 24° NNW 20:30:08 10° NNE visible
26 Mar -0.9 21:12:08 10° NW 21:13:26 12° NNW 21:14:44 10° N visible
27 Mar -1.1 20:20:03 10° WNW 20:22:03 15° NNW 20:24:03 10° NNE visible
29 Mar -0.9 20:15:58 10° NNW 20:16:50 11° N 20:17:43 10° N visible
29 Mar -0.7 21:53:50 10° N 21:54:05 10° N 21:54:05 10° N visible
31 Mar -1.1 21:47:25 10° NNW 21:48:36 14° N 21:48:36 14° N visible
